Showing default

COSMOS 444, 5547

Orbit data source: Space-Track

COSMOS 444, 5547 is a payload satellite owned by OKB-10 (CIS) in LEO that was launched on Wed, 13 Oct 1971 UTC via a KOSMOS 11K65M launch vehicle from the Plesetsk Missile And Space Complex (PKMTR). Payload-class satellites include a variety of spacecraft equipped with specific instruments for various scientific and technological missions. These include communications satellites like Starlink; space stations such as the ISS; scientific satellites like the Hubble; Earth observation satellites from companies like Planet Labs, Umbra, and HawkEye 360; GPS; miniature CubeSats for education and research; and military/defense satellites.

Loading next visibility...
Identifier
5547, 1971-086A
Orbit
LEO
Country
Flag of CISCIS
Related business
Manufacturer
OKB-10
Mission
Spacecraft
Bus & Motor
STRELA-1 11F625, Unknown motor
Mass
60 kg wet, 60 kg dry
Launch date (UTC)
1971-10-13 (55 years ago)
Launch vehicle
KOSMOS 11K65M
Launch site
Plesetsk Missile And Space Complex (PKMTR)
Object type
Payload
Rocket body
Debris
Shape & HBR
Unknown
Radar Cross Section
Medium (>0.1 m² and <1 m²)

Expand to show TLE details & history
Last TLE update: 2 days ago

TLE from 2 days ago
0 COSMOS 444
1  5547U 71086A   26171.44384175 -.00000000  00000-0  88209-4 0  9998
2  5547  74.0288  86.6216 0119709   4.6005 355.6123 12.62138258519438
Epoch: 2026-06-20T10:39Z
TLE epoch observation values (Epoch: 2026-06-20T10:39:07.927Z)
Latitude
-0.00002°
Longitude
18.18018°
Altitude
1,323.513 km
Speed
7.238 km/s
True Right ascension
05h 46m 29s
True Declination
0° 00' 00"
Sunlit
Object was in daylight at epoch
Visualization orbit readout
Latitude
Unknown
Longitude
Unknown
Altitude
Unknown
Speed
Unknown
Apparent Right ascension
Unknown
Apparent Declination
Unknown
Sunlit
N/A
Visualization observer readout
Local Sidereal Time
23:07:48
Azimuth
Unknown
Elevation
Unknown
Doppler factor
Unknown
Orbital elements
Apogee altitude
1,505.206 km
Perigee altitude
1,318.697 km
Semi-major axis
7,790.089 km
Eccentricity
0.01197
Inclination
74.0288°
RAAN
86.6216°
Arg. of periapsis
4.6005°
True anomaly
355.50576°
Mean anomaly
355.6123°
Eccentric anomaly
355.55919°
Mean motion
3.15667 °/min
Orbital period
114.04 mins
BSTAR
0.000088209
Loading maneuver chart data...
Computing Atmospheric mass density...
Loading historical data...
Loading historical data...
Loading historical data...
Loading historical data...
Loading historical data...
Loading historical data...
Loading historical data...

Documentation

Showing up to 5 results
|